30.06.2024;15:00;5
30.06.2024;14:00;5
30.06.2024;13:00;5
30.06.2024;12:00;5
30.06.2024;11:00;5
30.06.2024;10:00;6
30.06.2024;09:00;8
30.06.2024;08:00;9
30.06.2024;07:00;11
30.06.2024;06:00;11
30.06.2024;05:00;15
30.06.2024;04:00;21
30.06.2024;03:00;25
30.06.2024;02:00;29
30.06.2024;01:00;31
30.06.2024;00:00;30
29.06.2024;23:00;25
29.06.2024;22:00;16
29.06.2024;21:00;13
29.06.2024;20:00;12
29.06.2024;19:00;13
29.06.2024;18:00;14
29.06.2024;17:00;13
29.06.2024;16:00;13
29.06.2024;15:00;12
29.06.2024;14:00;12
29.06.2024;13:00;12
29.06.2024;12:00;12
29.06.2024;11:00;12
29.06.2024;10:00;14
29.06.2024;09:00;15
29.06.2024;08:00;16
29.06.2024;07:00;18
29.06.2024;06:00;23
29.06.2024;05:00;24
29.06.2024;04:00;24
29.06.2024;03:00;22
29.06.2024;02:00;23
29.06.2024;01:00;21
29.06.2024;00:00;15
28.06.2024;23:00;12
28.06.2024;22:00;12
28.06.2024;21:00;13
28.06.2024;20:00;13
28.06.2024;19:00;14
28.06.2024;18:00;13
28.06.2024;17:00;10
28.06.2024;16:00;11
